Time,TemperatureF,DewpointF,PressureIn,WindDirection,WindDirectionDegrees,WindSpeedMPH,WindSpeedGustMPH,Humidity,HourlyPrecipIn,Conditions,Clouds,dailyrainin,SolarRadiationWatts/m^2,SoftwareType,DateUTC
2013-05-11 00:01:00,61.0,42.0,-100.00,WSW,247,4.0,10.0,50,0.00,,,0.00,0.000000,,2013-05-11 07:01:00,
2013-05-11 00:32:00,56.0,41.0,-100.00,East,100,3.0,6.0,56,0.00,,,0.00,0.000000,,2013-05-11 07:32:00,
2013-05-11 00:42:00,56.0,41.0,-100.00,East,100,3.0,6.0,56,0.00,,,0.00,0.000000,,2013-05-11 07:42:00,
2013-05-11 00:52:00,56.0,41.0,-100.00,East,100,3.0,6.0,56,0.00,,,0.00,0.000000,,2013-05-11 07:52:00,
2013-05-11 01:01:00,56.0,41.0,-100.00,East,100,3.0,6.0,56,0.00,,,0.00,0.000000,,2013-05-11 08:01:00,
2013-05-11 01:21:00,56.0,41.0,-100.00,ESE,103,2.0,5.0,58,0.00,,,0.00,0.000000,,2013-05-11 08:21:00,
2013-05-11 01:32:00,56.0,41.0,-100.00,ESE,103,2.0,5.0,58,0.00,,,0.00,0.000000,,2013-05-11 08:32:00,
2013-05-11 01:42:00,56.0,41.0,-100.00,ESE,103,2.0,5.0,58,0.00,,,0.00,0.000000,,2013-05-11 08:42:00,
2013-05-11 01:52:00,56.0,41.0,-100.00,ESE,103,2.0,5.0,58,0.00,,,0.00,0.000000,,2013-05-11 08:52:00,
2013-05-11 02:01:00,56.0,41.0,-100.00,ESE,103,2.0,5.0,58,0.00,,,0.00,0.000000,,2013-05-11 09:01:00,
2013-05-11 02:02:00,54.0,41.0,-100.00,East,94,2.0,4.0,62,0.00,,,0.00,0.000000,,2013-05-11 09:02:00,
2013-05-11 02:33:00,54.0,41.0,-100.00,East,94,2.0,4.0,62,0.00,,,0.00,0.000000,,2013-05-11 09:33:00,
2013-05-11 02:42:00,54.0,41.0,-100.00,East,94,2.0,4.0,62,0.00,,,0.00,0.000000,,2013-05-11 09:42:00,
2013-05-11 02:52:00,54.0,41.0,-100.00,East,94,2.0,4.0,62,0.00,,,0.00,0.000000,,2013-05-11 09:52:00,
2013-05-11 03:02:00,54.0,40.0,-100.00,East,88,3.0,5.0,60,0.00,,,0.00,0.000000,,2013-05-11 10:02:00,
2013-05-11 03:33:00,54.0,40.0,-100.00,East,88,3.0,5.0,60,0.00,,,0.00,0.000000,,2013-05-11 10:33:00,
2013-05-11 03:42:00,54.0,40.0,-100.00,East,88,3.0,5.0,60,0.00,,,0.00,0.000000,,2013-05-11 10:42:00,
2013-05-11 03:52:00,54.0,40.0,-100.00,East,88,3.0,5.0,60,0.00,,,0.00,0.000000,,2013-05-11 10:52:00,
2013-05-11 04:32:00,53.0,40.0,-100.00,ENE,59,2.0,4.0,61,0.00,,,-99.99,0.000000,,2013-05-11 11:32:00,
2013-05-11 04:42:00,53.0,40.0,-100.00,ENE,59,2.0,4.0,61,0.00,,,-99.99,0.000000,,2013-05-11 11:42:00,
2013-05-11 04:52:00,53.0,40.0,-100.00,ENE,59,2.0,4.0,61,0.00,,,-99.99,0.000000,,2013-05-11 11:52:00,
2013-05-11 05:01:00,53.0,40.0,-100.00,ENE,59,2.0,4.0,61,0.00,,,-99.99,0.000000,,2013-05-11 12:01:00,
2013-05-11 05:22:00,54.0,38.0,-100.00,SSE,165,2.0,5.0,55,0.00,,,-99.99,0.000000,,2013-05-11 12:22:00,
2013-05-11 05:32:00,54.0,38.0,-100.00,SSE,165,2.0,5.0,55,0.00,,,-99.99,0.000000,,2013-05-11 12:32:00,
2013-05-11 05:42:00,54.0,38.0,-100.00,SSE,165,2.0,5.0,55,0.00,,,-99.99,0.000000,,2013-05-11 12:42:00,
2013-05-11 05:52:00,54.0,38.0,-100.00,SSE,165,2.0,5.0,55,0.00,,,-99.99,0.000000,,2013-05-11 12:52:00,
2013-05-11 06:01:00,54.0,38.0,-100.00,SSE,165,2.0,5.0,55,0.00,,,-99.99,0.000000,,2013-05-11 13:01:00,
2013-05-11 06:02:00,53.0,38.0,-100.00,ESE,110,1.0,4.0,57,0.00,,,-99.99,2.000000,,2013-05-11 13:02:00,
2013-05-11 06:32:00,53.0,38.0,-100.00,ESE,110,1.0,4.0,57,0.00,,,-99.99,2.000000,,2013-05-11 13:32:00,
2013-05-11 06:42:00,53.0,38.0,-100.00,ESE,110,1.0,4.0,57,0.00,,,-99.99,2.000000,,2013-05-11 13:42:00,
2013-05-11 06:52:00,53.0,38.0,-100.00,ESE,110,1.0,4.0,57,0.00,,,-99.99,2.000000,,2013-05-11 13:52:00,
2013-05-11 07:32:00,60.0,42.0,-100.00,NE,56,1.0,4.0,52,0.00,,,0.00,71.000000,,2013-05-11 14:32:00,
2013-05-11 07:42:00,60.0,42.0,-100.00,NE,56,1.0,4.0,52,0.00,,,0.00,71.000000,,2013-05-11 14:42:00,
2013-05-11 07:52:00,60.0,42.0,-100.00,NE,56,1.0,4.0,52,0.00,,,0.00,71.000000,,2013-05-11 14:52:00,
2013-05-11 08:01:00,60.0,42.0,-100.00,NE,56,1.0,4.0,52,0.00,,,0.00,71.000000,,2013-05-11 15:01:00,
2013-05-11 08:02:00,68.0,41.0,-100.00,East,88,2.0,4.0,38,0.00,,,0.00,287.000000,,2013-05-11 15:02:00,
2013-05-11 08:32:00,68.0,41.0,-100.00,East,88,2.0,4.0,38,0.00,,,0.00,287.000000,,2013-05-11 15:32:00,
2013-05-11 08:43:00,68.0,41.0,-100.00,East,88,2.0,4.0,38,0.00,,,0.00,287.000000,,2013-05-11 15:43:00,
2013-05-11 08:53:00,68.0,41.0,-100.00,East,88,2.0,4.0,38,0.00,,,0.00,287.000000,,2013-05-11 15:53:00,
2013-05-11 09:02:00,71.0,36.0,-100.00,NW,309,5.0,8.0,28,0.00,,,0.00,538.000000,,2013-05-11 16:02:00,
2013-05-11 09:33:00,71.0,36.0,-100.00,NW,309,5.0,8.0,28,0.00,,,0.00,538.000000,,2013-05-11 16:33:00,
2013-05-11 09:42:00,71.0,36.0,-100.00,NW,309,5.0,8.0,28,0.00,,,0.00,538.000000,,2013-05-11 16:42:00,
2013-05-11 09:52:00,71.0,36.0,-100.00,NW,309,5.0,8.0,28,0.00,,,0.00,538.000000,,2013-05-11 16:52:00,
2013-05-11 11:02:00,76.0,34.0,-100.00,NW,326,8.0,16.0,22,-99.99,,,0.00,959.000000,,2013-05-11 18:02:00,
2013-05-11 11:32:00,76.0,34.0,-100.00,NW,326,8.0,16.0,22,-99.99,,,0.00,959.000000,,2013-05-11 18:32:00,
2013-05-11 11:42:00,76.0,34.0,-100.00,NW,326,8.0,16.0,22,-99.99,,,0.00,959.000000,,2013-05-11 18:42:00,
2013-05-11 11:52:00,76.0,34.0,-100.00,NW,326,8.0,16.0,22,-99.99,,,0.00,959.000000,,2013-05-11 18:52:00,
2013-05-11 12:22:00,78.0,32.0,-100.00,North,350,11.0,20.0,19,0.00,,,0.00,1094.000000,,2013-05-11 19:22:00,
2013-05-11 12:32:00,78.0,32.0,-100.00,North,350,11.0,20.0,19,0.00,,,0.00,1094.000000,,2013-05-11 19:32:00,
2013-05-11 12:42:00,78.0,32.0,-100.00,North,350,11.0,20.0,19,0.00,,,0.00,1094.000000,,2013-05-11 19:42:00,
2013-05-11 12:52:00,78.0,32.0,-100.00,North,350,11.0,20.0,19,0.00,,,0.00,1094.000000,,2013-05-11 19:52:00,
2013-05-11 13:01:00,78.0,32.0,-100.00,North,350,11.0,20.0,19,0.00,,,0.00,1094.000000,,2013-05-11 20:01:00,
2013-05-11 13:32:00,79.0,27.0,-100.00,NNW,338,10.0,20.0,15,0.00,,,0.00,1155.000000,,2013-05-11 20:32:00,
2013-05-11 13:42:00,79.0,27.0,-100.00,NNW,338,10.0,20.0,15,0.00,,,0.00,1155.000000,,2013-05-11 20:42:00,
2013-05-11 13:52:00,79.0,27.0,-100.00,NNW,338,10.0,20.0,15,0.00,,,0.00,1155.000000,,2013-05-11 20:52:00,
2013-05-11 14:01:00,79.0,27.0,-100.00,NNW,338,10.0,20.0,15,0.00,,,0.00,1155.000000,,2013-05-11 21:01:00,
2013-05-11 14:22:00,80.0,25.0,-100.00,NNE,21,11.0,20.0,13,0.00,,,0.00,1162.000000,,2013-05-11 21:22:00,
2013-05-11 14:33:00,80.0,25.0,-100.00,NNE,21,11.0,20.0,13,0.00,,,0.00,1162.000000,,2013-05-11 21:33:00,
2013-05-11 14:43:00,80.0,25.0,-100.00,NNE,21,11.0,20.0,13,0.00,,,0.00,1162.000000,,2013-05-11 21:43:00,
2013-05-11 14:52:00,80.0,25.0,-100.00,NNE,21,11.0,20.0,13,0.00,,,0.00,1162.000000,,2013-05-11 21:52:00,
2013-05-11 15:02:00,80.0,25.0,-100.00,NNE,12,11.0,21.0,13,0.00,,,0.00,1099.000000,,2013-05-11 22:02:00,
2013-05-11 15:23:00,80.0,25.0,-100.00,NNE,12,11.0,21.0,13,0.00,,,0.00,1099.000000,,2013-05-11 22:23:00,
2013-05-11 15:33:00,80.0,25.0,-100.00,NNE,12,11.0,21.0,13,0.00,,,0.00,1099.000000,,2013-05-11 22:33:00,
2013-05-11 15:43:00,80.0,25.0,-100.00,NNE,12,11.0,21.0,13,0.00,,,0.00,1099.000000,,2013-05-11 22:43:00,
2013-05-11 15:52:00,80.0,25.0,-100.00,NNE,12,11.0,21.0,13,0.00,,,0.00,1099.000000,,2013-05-11 22:52:00,
2013-05-11 16:22:00,81.0,24.0,-100.00,NNE,13,9.0,20.0,12,0.00,,,0.00,983.000000,,2013-05-11 23:22:00,
2013-05-11 16:32:00,81.0,24.0,-100.00,NNE,13,9.0,20.0,12,0.00,,,0.00,983.000000,,2013-05-11 23:32:00,
2013-05-11 16:42:00,81.0,24.0,-100.00,NNE,13,9.0,20.0,12,0.00,,,0.00,983.000000,,2013-05-11 23:42:00,
2013-05-11 16:52:00,81.0,24.0,-100.00,NNE,13,9.0,20.0,12,0.00,,,0.00,983.000000,,2013-05-11 23:52:00,
2013-05-11 17:01:00,81.0,24.0,-100.00,NNE,13,9.0,20.0,12,0.00,,,0.00,983.000000,,2013-05-12 00:01:00,
2013-05-11 17:21:00,81.0,27.0,-100.00,NNE,14,7.0,16.0,14,0.00,,,0.00,791.000000,,2013-05-12 00:21:00,
2013-05-11 17:32:00,81.0,27.0,-100.00,NNE,14,7.0,16.0,14,0.00,,,0.00,791.000000,,2013-05-12 00:32:00,
2013-05-11 18:21:00,80.0,27.0,-100.00,North,2,7.0,14.0,14,0.00,,,0.00,561.000000,,2013-05-12 01:21:00,
2013-05-11 18:32:00,80.0,27.0,-100.00,North,2,7.0,14.0,14,0.00,,,0.00,561.000000,,2013-05-12 01:32:00,
2013-05-11 19:22:00,76.0,36.0,-100.00,NE,36,6.0,13.0,23,0.00,,,0.00,288.000000,,2013-05-12 02:22:00,
2013-05-11 19:32:00,76.0,36.0,-100.00,NE,36,6.0,13.0,23,0.00,,,0.00,288.000000,,2013-05-12 02:32:00,
2013-05-11 19:42:00,76.0,36.0,-100.00,NE,36,6.0,13.0,23,0.00,,,0.00,288.000000,,2013-05-12 02:42:00,
2013-05-11 19:52:00,76.0,36.0,-100.00,NE,36,6.0,13.0,23,0.00,,,0.00,288.000000,,2013-05-12 02:52:00,
2013-05-11 20:01:00,76.0,36.0,-100.00,NE,36,6.0,13.0,23,0.00,,,0.00,288.000000,,2013-05-12 03:01:00,
2013-05-11 20:02:00,-999.0,-99.9,-100.00,ESE,116,4.0,7.0,38,0.00,,,0.00,40.000000,,2013-05-12 03:02:00,
2013-05-11 20:22:00,67.0,41.0,-100.00,ESE,116,4.0,7.0,38,0.00,,,0.00,40.000000,,2013-05-12 03:22:00,
2013-05-11 20:33:00,67.0,41.0,-100.00,ESE,116,4.0,7.0,38,0.00,,,0.00,40.000000,,2013-05-12 03:33:00,
2013-05-11 20:43:00,67.0,41.0,-100.00,ESE,116,4.0,7.0,38,0.00,,,0.00,40.000000,,2013-05-12 03:43:00,
2013-05-11 20:53:00,67.0,41.0,-100.00,ESE,116,4.0,7.0,38,0.00,,,0.00,40.000000,,2013-05-12 03:53:00,
2013-05-11 21:02:00,63.0,39.0,-100.00,ESE,106,3.0,5.0,41,0.00,,,0.00,0.000000,,2013-05-12 04:02:00,
2013-05-11 21:33:00,63.0,39.0,-100.00,ESE,106,3.0,5.0,41,0.00,,,0.00,0.000000,,2013-05-12 04:33:00,
2013-05-11 21:43:00,63.0,39.0,-100.00,ESE,106,3.0,5.0,41,0.00,,,0.00,0.000000,,2013-05-12 04:43:00,
2013-05-11 21:52:00,63.0,39.0,-100.00,ESE,106,3.0,5.0,41,0.00,,,0.00,0.000000,,2013-05-12 04:52:00,
2013-05-11 22:22:00,63.0,35.0,-100.00,East,90,2.0,5.0,35,0.00,,,0.00,0.000000,,2013-05-12 05:22:00,
2013-05-11 22:32:00,63.0,35.0,-100.00,East,90,2.0,5.0,35,0.00,,,0.00,0.000000,,2013-05-12 05:32:00,
2013-05-11 22:42:00,63.0,35.0,-100.00,East,90,2.0,5.0,35,0.00,,,0.00,0.000000,,2013-05-12 05:42:00,
2013-05-11 22:52:00,63.0,35.0,-100.00,East,90,2.0,5.0,35,0.00,,,0.00,0.000000,,2013-05-12 05:52:00,
2013-05-11 23:01:00,63.0,35.0,-100.00,East,90,2.0,5.0,35,0.00,,,0.00,0.000000,,2013-05-12 06:01:00,
2013-05-11 23:32:00,62.0,37.0,-100.00,SE,126,4.0,5.0,40,0.00,,,0.00,0.000000,,2013-05-12 06:32:00,
2013-05-11 23:42:00,62.0,37.0,-100.00,SE,126,4.0,5.0,40,0.00,,,0.00,0.000000,,2013-05-12 06:42:00,
2013-05-11 23:52:00,62.0,37.0,-100.00,SE,126,4.0,5.0,40,0.00,,,0.00,0.000000,,2013-05-12 06:52:00,